Regional Weather Roundup
Issued by NWS

Home | Current Version | Previous Version | Text Only | Print | Product List | Glossary On
Versions: 1 2 3 4 5 6 7 8 9 10 11 12 13 14 15 16 17 18 19 20 21 22 23 24 25 26 27 28 29 30 31 32 33 34 35 36 37 38 39 40 41 42 43 44 45 46 47 48 49 50
000
ASUS43 KLSX 021857
RWRMO

WEATHER SUMMARY FOR MISSOURI
NATIONAL WEATHER SERVICE SPRINGFIELD MO
200 PM CDT MON MAY 02 2016

NOTE: "FAIR" INDICATES FEW OR NO CLOUDS BELOW 12,000 FEET WITH NO
       SIGNIFICANT WEATHER AND/OR OBSTRUCTIONS TO VISIBILITY.
       CURRENT SKY AND/OR WEATHER CONDITIONS ARE NOT AVAILABLE FOR
       CHILLICOTHE AND FARMINGTON.

MOZ001>031-035>038-043-044-053-054-022000-
...NORTHERN AND WESTERN MISSOURI...

CITY           SKY/WX    TMP DP  RH WIND       PRES   REMARKS
KANSAS CTY INT CLOUDY    54  45  71 N5        30.10F
LEE`S SUMMIT   CLOUDY    51  45  79 N7        30.11S
ST JOSEPH      MOSUNNY   59  46  62 NW5       30.10F
CHILLICOTHE      N/A     60  47  61 CALM      30.08F

$$
MOZ066>068-077>081-088>096-101>105-022000-
...SOUTHWEST MISSOURI...

CITY           SKY/WX    TMP DP  RH WIND       PRES   REMARKS
SPRINGFIELD    CLOUDY    54  45  71 NW9       30.08F
JOPLIN         CLOUDY    52  45  77 NW9       30.11F
BRANSON        CLOUDY    57  46  67 NW5       30.08F

$$
MOZ032>034-039>042-045>050-055>058-069>072-022000-
...CENTRAL MISSOURI...

CITY           SKY/WX    TMP DP  RH WIND       PRES   REMARKS
COLUMBIA       NOT AVBL
JEFFERSON CITY CLOUDY    54  45  71 NE5       30.07S
ROLLA          CLOUDY    53  46  77 SW8       30.05F
SEDALIA        CLOUDY    55  46  71 W5        30.09F
WARRENSBURG    CLOUDY    52  45  76 NW3       30.10S

$$
MOZ051-052-059>065-022000-
...EAST CENTRAL MISSOURI...

CITY           SKY/WX    TMP DP  RH WIND       PRES   REMARKS
ST LOUIS INTL  LGT RAIN  55  47  74 N3        30.06S

$$
MOZ072>076-082>087-097>100-106>115-022000-
...SOUTH CENTRAL AND SOUTHEAST MISSOURI...

CITY           SKY/WX    TMP DP  RH WIND       PRES   REMARKS
CAPE GIRARDEAU CLOUDY    63  50  62 NW9       30.01F
POPLAR BLUFF   CLOUDY    65  50  58 NW3       30.01F
WEST PLAINS    CLOUDY    60  45  57 NW9       30.06S

$$



USA.gov is the U.S. government's official web portal to all federal, state and local government web resources and services.